Disclaimer

Please do not use the information listed here in-flight or in-navigation, as they are not provided to us by the airports but are provided by volunteers, so they might be outdated.

Search


Regions


Airport information page

Radio informations:
Tower (TWR) - 122.1 MHz
RADAR - 123.3 MHz
BREMEN CON - 136.225 MHz

Airport informations:
Latitude: 54° 18' 43.80" N
Longitude: 009° 32' 17.40" E
Elevation: 39 feet - 12 meters
Operating hours: Remarks
Operating agency: Military
Timezone: UTC+1(+2DT) - Last Sunday in March to last Sunday in October
Fuel: JP-8, SemiKeroscene MIL Spec T-83133, without icing inhibitor

Runway information:
08/26 - 8005 x 98 feet< - >2440 x 30 meters

Recent METARs:
ETNH 212020Z 24006KT 0200 FG VV000 01/01 Q1016 RED
ETNH 212020Z 24006KT 0200 FG VV000 01/01 Q1016 RED
ETNH 212120Z 22005KT 0800 FG VV001 01/01 Q1016 RED

Airport on the map: